CAPE
927 1423 1464 205 53 99 55 120 137 161 116 31 34 185 199 373 240 29 114 258 306 729 1282 1481 1238 1316 1378 1287 1360 1188 1644 1705 1827 1342 1699 1790 1675 1818 1634 1688 1797 1594 1635 1629 1597 1555 1412 1210 1225
1135 325 18 46 47 35 74 228 229 269 330 124 260 433 407 269 284 187 215 282 499 935 1439 1585 1325 1396 1618 1673 1380 1649 2049 1742 1946 1239 1321 1745 1730 1849 1918 1758 1806 1724 1701 1636 1321 1388 1484 1287 1195
128 376 69 25 35 64 134 324 298 225 344 477 326 245 186 251 275 202 324 441 768 1129 1626 1443 1300 1412 1899 1776 1411 2002 1824 1637 1604 1192 975 1444 1734 1835 1879 1871 1305 1760 1756 1734 1714 1589 1338 1324 1347
1198 295 382 113 97 222 313 327 547 229 328 318 217 32 230 279 188 335 451 732 923 1184 1284 1575 1343 1527 2125 1565 1627 1806 1900 2113 1725 1752 1806 943 1042 1813 2090 1615 1854 1284 1051 1137 1097 1251 1511 1757 1861
386 196 323 123 82 365 489 462 535 524 348 417 223 219 191 67 232 516 550 747 690 1043 1340 1447 1484 1636 2153 1946 1654 1608 1866 1942 1853 1820 1683 1772 1805 1623 1178 1281 1674 1791 1663 1892 1772 1210 1693 1771 1465
510 384 232 56 69 115 574 506 602 558 462 338 199 132 157 100 213 396 403 559 782 1059 1359 1574 1657 1771 2223 2018 1592 2144 2140 2019 1869 1798 1631 1569 1296 1062 1279 1579 1511 1119 1556 1575 1488 1360 1302 1707 1795
199 71 88 196 266 392 450 544 522 439 370 316 236 96 48 117 150 71 177 496 652 1000 1058 1611 1561 1729 1930 1980 2055 2074 2130 2256 1645 1594 1525 1332 1172 1301 1496 1433 1389 1518 1312 1055 1730 1922 1517 1273 1210
84 45 22 205 454 370 378 472 532 380 490 407 246 77 27 52 5 122 202 227 295 699 877 1310 1670 1759 1899 1622 1888 2254 1982 1732 1348 929 767 929 1455 1655 1124 817 989 1246 1295 1248 1185 985 1261 1663 1632
34 32 18 69 412 428 320 467 378 475 493 404 405 164 79 19 247 336 286 601 429 723 1052 1444 1645 1759 1650 2067 2296 2134 1803 1376 1124 815 1153 1594 1258 1249 905 46 131 612 1185 1329 1426 1497 1442 1403 1277
35 22 10 8 43 403 581 336 423 451 417 479 317 101 58 198 345 309 60 404 323 379 868 1289 1516 1555 1516 1612 1745 1602 1384 1225 1003 863 1804 1143 105 0 38 108 164 429 803 890 1183 1307 1595 1462 787
30 5 0 28 93 309 558 357 452 384 372 466 282 108 127 312 367 418 467 591 614 537 858 1344 1357 1309 1259 1138 1235 1223 1040 919 667 701 832 119 0 0 9 1 3 17 340 581 749 998 1132 542 621
16 2 0 46 30 0 277 528 363 383 282 352 231 256 290 353 370 385 536 679 649 501 618 1049 1143 1104 1075 1034 901 831 626 704 480 542 317 7 0 0 0 0 0 0 53 108 150 170 168 350 328
26 9 0 0 8 0 170 438 400 351 222 303 212 370 298 359 411 502 550 719 653 521 428 524 845 801 745 671 756 682 413 402 485 397 235 61 0 0 0 0 0 0 41 66 71 45 44 82 229
44 2 0 0 36 0 87 346 316 393 214 235 114 241 319 374 458 543 516 572 533 597 413 430 514 533 484 383 459 354 334 268 396 381 403 110 0 0 0 0 0 0 0 22 27 44 80 161 179
52 2 0 0 0 0 42 188 266 387 222 132 295 134 76 197 351 405 404 451 359 333 283 288 324 280 221 250 442 432 339 240 272 534 489 244 26 0 0 0 0 0 0 4 23 62 95 101 93
67 2 0 0 0 0 32 89 313 326 195 123 112 212 162 109 44 103 240 251 274 212 211 176 284 243 194 270 369 488 501 447 359 530 410 180 8 0 0 0 0 4 14 0 1 12 13 42 132
17 0 0 0 14 0 1 138 255 233 204 165 68 48 75 32 5 0 61 14 115 87 65 89 143 158 196 250 344 425 413 460 376 418 256 67 0 0 0 0 0 30 31 23 45 102 96 33 81
0 3 1 0 0 7 6 19 178 220 210 167 64 8 13 26 15 7 0 0 0 3 9 47 63 120 180 256 331 435 427 340 305 268 120 46 5 1 0 36 18 43 73 44 83 105 128 105 95
3 1 3 21 5 27 34 0 95 201 123 190 164 88 68 85 88 24 1 0 0 0 4 18 69 128 200 237 246 326 358 408 318 135 110 55 36 41 45 116 133 168 130 97 88 116 122 47 165
14 21 8 65 84 76 40 16 2 0 0 25 132 155 153 146 78 67 33 12 0 0 0 8 26 62 127 203 263 311 360 323 262 274 225 181 233 256 263 361 409 389 285 272 175 141 52 51 106
17 3 4 53 166 207 94 26 46 44 0 0 137 173 87 163 140 45 48 41 2 0 0 7 13 29 54 145 181 306 360 441 480 446 408 461 528 541 533 468 248 310 342 305 194 159 86 68 91
1 6 11 33 1 4 189 41 16 4 22 3 0 115 168 96 95 78 68 48 70 67 51 54 22 52 67 153 158 193 279 382 456 542 602 610 633 584 474 296 430 515 386 313 296 205 164 67 62
1 15 3 24 11 28 119 30 26 3 1 0 10 11 186 132 134 144 90 56 80 85 79 51 120 64 68 186 315 372 432 483 572 665 716 654 575 503 482 360 449 577 388 324 265 255 193 126 42
5 4 3 0 0 0 1 31 22 20 1 0 0 6 115 272 209 212 168 136 97 121 179 115 160 291 207 194 287 530 621 666 770 844 811 766 763 728 649 573 539 648 429 443 382 333 216 220 174
0 1 5 2 0 1 0 76 64 5 23 0 0 0 4 217 315 335 388 295 239 193 221 288 280 331 822 706 660 686 647 509 531 603 884 776 841 931 677 677 729 607 539 523 356 190 295 215 181
4 0 0 4 13 25 0 0 0 24 43 148 190 69 76 262 347 393 450 256 412 465 426 424 619 724 583 439 1150 1048 7 11 2 358 59 11 460 568 562 279 189 499 446 492 270 289 165 66 67
0 4 0 4 0 9 0 26 61 76 40 145 135 142 287 444 405 409 96 22 30 297 1056 1048 1165 1352 1422 1612 1619 769 293 44 122 452 66 25 218 787 686 570 474 401 399 350 224 212 8 10 0
0 0 14 9 21 16 0 17 13 89 69 4 357 142 185 440 509 165 54 131 14 43 1009 1551 1736 1956 1780 1444 1008 813 734 642 607 592 415 420 335 390 344 378 433 376 311 213 155 2 0 0 0
0 0 2 7 0 19 17 0 28 64 23 6 13 367 122 330 415 158 29 1 220 1217 1780 2116 2077 1927 1440 932 649 559 384 357 493 497 511 425 374 188 99 72 49 55 87 96 26 0 0 0 0
0 0 5 29 8 1 13 4 67 66 0 5 3 309 473 313 393 418 600 462 411 1658 1841 1806 1467 1299 1051 606 262 122 39 5 2 40 84 69 192 213 71 24 5 0 0 0 0 0 0 0 0
CIN
-180 -91 -66 -261 -70 -53 -57 -23 -59 -44 -78 -110 -123 -91 -105 -103 -110 -100 -307 -176 -111 -21 0 0 -1 -1 -1 -5 -6 -12 0 0 0 -2 0 0 -2 0 -4 -2 0 0 0 0 0 -1 0 -4 -7
-202 -297 -275 -215 -45 -46 -24 -35 -29 -41 -90 -95 -87 -72 -76 -123 -229 -307 -254 -159 -87 -31 0 0 -1 -1 0 0 -6 0 0 0 0 -2 0 0 0 0 0 0 0 0 0 0 0 0 0 0 0
-337 -264 -185 -127 -69 -54 -23 -47 -41 -53 -44 -61 -73 -109 -151 -214 -271 -308 -226 -152 -55 -13 -1 0 -4 0 0 0 -3 0 0 0 0 -3 -5 0 0 0 0 0 0 0 0 0 0 0 0 -1 -1
-165 -211 -189 -52 -43 -56 -55 -47 -31 -73 -46 -74 -126 -163 -189 -241 -294 -232 -192 -95 -48 -14 -4 0 -7 -1 0 0 0 0 0 0 0 0 0 -11 -4 0 0 0 0 -1 -6 -4 -1 0 0 0 0
-250 -146 -28 -37 -47 -58 -67 -57 -39 -39 -55 -84 -97 -105 -192 -327 -253 -189 -159 -91 -98 -36 -9 -5 -7 -3 0 0 -1 0 0 0 0 0 0 0 0 0 -5 0 0 0 0 0 -1 -6 -1 0 -2
-84 -110 -49 -30 -63 -70 -49 -46 -40 -51 -77 -104 -103 -134 -178 -305 -230 -181 -173 -125 -95 -64 -23 -6 -3 -1 0 0 -4 0 0 0 0 0 -2 -2 -8 -14 -10 -1 0 -5 0 -1 -3 -4 -1 -1 0
-112 -89 -42 -38 -39 -36 -41 -49 -40 -59 -87 -99 -103 -159 -326 -239 -230 -317 -226 -131 -111 -70 -65 -10 -10 -2 0 0 0 0 0 0 -1 -1 -4 -11 -20 -13 -8 -11 -5 0 0 -5 0 0 -4 -5 -12
-102 -78 -49 -53 -24 -18 -46 -44 -52 -57 -68 -111 -98 -178 -302 -310 -297 -221 -178 -166 -142 -100 -92 -51 -13 -6 -1 -3 0 0 0 -1 -12 -31 -39 -26 -6 -5 -22 -33 -23 -4 -1 0 -2 -14 -13 -7 -2
-122 -69 -70 -77 -33 -13 -54 -45 -78 -80 -83 -88 -66 -126 -258 -355 -189 -124 -132 -80 -119 -100 -81 -39 -22 -20 -20 -1 -1 0 -1 -13 -28 -40 -16 0 -13 -13 -19 -117 -80 -33 -12 -4 0 0 0 -3 -7
-53 -68 -111 -96 -146 -20 -28 -41 -55 -67 -84 -73 -95 -183 -355 -199 -150 -136 -195 -126 -149 -168 -116 -63 -45 -43 -29 -13 -6 -14 -25 -37 -49 -45 -2 -19 -85 -50 -133 -69 -70 -40 -25 -21 -8 -1 0 -3 -23
-118 -68 0 -123 -132 -42 -18 -31 -56 -62 -71 -69 -79 -195 -233 -197 -152 -125 -142 -142 -163 -161 -123 -67 -56 -68 -66 -66 -54 -57 -65 -66 -79 -64 -48 -98 -12 0 -131 -108 -13 -81 -50 -36 -22 -7 -4 -11 -15
-73 -55 0 -89 -121 0 -31 -25 -39 -53 -47 -74 -122 -195 -189 -170 -153 -127 -119 -136 -130 -163 -154 -121 -82 -83 -81 -78 -92 -109 -115 -84 -95 -82 -84 -144 0 0 0 0 0 0 -73 -54 -49 -45 -44 -21 -17
-76 -114 0 0 -167 0 -71 -22 -33 -38 -61 -92 -151 -154 -167 -144 -132 -123 -125 -133 -137 -149 -178 -175 -139 -144 -150 -136 -117 -127 -144 -131 -100 -85 -94 -113 0 0 0 0 0 0 -64 -58 -54 -80 -80 -65 -38
-115 -82 0 0 -166 0 -63 -41 -26 -60 -78 -112 -177 -132 -104 -99 -93 -96 -120 -112 -123 -139 -164 -183 -196 -187 -177 -176 -155 -158 -150 -142 -103 -87 -75 -96 0 0 0 0 0 0 -5 -47 -47 -55 -45 -38 -34
-152 -109 0 0 0 0 -46 -71 -49 -71 -67 -110 -64 -95 -167 -91 -76 -62 -86 -102 -109 -144 -155 -173 -200 -224 -216 -187 -153 -144 -148 -153 -120 -82 -65 -68 -95 0 0 0 0 0 0 -49 -45 -39 -40 -44 -53
-127 -222 0 0 -10 0 -43 -94 -115 -109 -86 -123 -128 -69 -72 -116 -192 -148 -92 -84 -123 -142 -156 -177 -178 -211 -216 -175 -156 -147 -140 -131 -111 -81 -78 -90 -45 0 0 0 0 -44 -56 0 -47 -70 -70 -49 -45
-179 0 0 0 -156 0 -42 -142 -152 -167 -125 -105 -163 -182 -158 -212 -224 0 -186 -224 -139 -170 -166 -180 -202 -207 -207 -181 -159 -145 -150 -122 -107 -80 -97 -121 -36 0 0 0 0 -54 -52 -68 -44 -25 -36 -55 -45
-7 -75 -84 0 0 -174 -164 -83 -165 -166 -154 -161 -163 -216 -212 -220 -223 -225 0 0 -12 -118 -161 -205 -200 -206 -205 -193 -180 -169 -139 -124 -116 -108 -128 -134 -147 -27 0 -70 -85 -58 -41 -49 -37 -28 -41 -50 -51
-39 -11 -34 -129 -168 -151 -125 0 -146 -161 -194 -191 -169 -182 -172 -160 -151 -226 -53 0 0 0 -202 -248 -213 -199 -204 -185 -175 -148 -109 -113 -110 -157 -134 -133 -136 -127 -97 -62 -49 -35 -33 -36 -32 -31 -36 -63 -42
-113 -95 -55 -117 -161 -139 -139 -111 -37 0 0 -177 -217 -185 -160 -146 -152 -177 -167 -195 0 0 0 -198 -230 -205 -202 -182 -173 -158 -133 -143 -136 -127 -131 -139 -91 -74 -68 -53 -36 -30 -33 -33 -36 -44 -50 -46 -37
-68 -70 -62 -59 -147 -178 -142 -101 -97 -161 0 0 -199 -235 -243 -156 -138 -151 -175 -144 -80 0 0 -116 -149 -209 -199 -213 -210 -178 -157 -134 -116 -126 -126 -102 -82 -75 -66 -65 -94 -74 -57 -47 -55 -55 -36 -32 -33
-59 -60 -82 -95 -20 -19 -170 -71 -80 -108 -137 -175 0 -224 -210 -245 -180 -190 -170 -173 -176 -153 -222 -253 -290 -242 -236 -270 -241 -174 -129 -101 -91 -62 -81 -86 -91 -82 -90 -115 -87 -64 -79 -89 -68 -58 -50 -43 -22
-10 -26 -72 -85 -138 -125 -128 -101 -114 -198 -48 0 -264 -278 -204 -233 -216 -201 -207 -205 -166 -195 -233 -244 -279 -264 -281 -253 -233 -215 -174 -134 -120 -85 -56 -57 -66 -81 -83 -97 -96 -73 -83 -62 -62 -51 -40 -54 -41
-69 -74 -70 0 0 0 -57 -114 -126 -139 -61 0 0 -260 -230 -199 -238 -227 -237 -249 -223 -250 -252 -242 -244 -216 -251 -287 -183 -194 -178 -145 -113 -74 -58 -57 -51 -66 -85 -80 -75 -59 -46 -40 -48 -47 -52 -50 -63
0 -75 -33 -11 0 -14 0 -141 -149 -225 -312 0 0 0 -257 -296 -269 -258 -213 -231 -221 -254 -253 -241 -259 -231 -179 -171 -217 -182 -200 -110 -90 -54 -57 -54 -59 -71 -110 -108 -88 -50 -38 -56 -78 -71 -53 -41 -41
-73 -1 -4 -28 -16 -32 0 0 0 -244 -307 -281 -374 -320 -348 -366 -258 -190 -150 -169 -214 -244 -237 -213 -206 -194 -171 -175 -97 -107 -101 -137 -7 -26 -174 -371 -88 -128 -136 -156 -154 -63 -49 -66 -78 -52 -73 -134 -123
0 -42 0 -4 -21 -72 0 -153 -207 -303 -299 -279 -273 -255 -263 -253 -248 -203 -261 -398 -385 -324 -252 -188 -169 -173 -171 -130 -93 -91 -119 -241 -109 -47 -119 -395 -195 -93 -120 -92 -78 -44 -64 -57 -78 -68 -113 -137 0
0 0 -34 -42 -17 -21 0 -116 -71 -123 -198 -311 -248 -261 -269 -285 -259 -342 -364 -444 -522 -341 -258 -161 -163 -154 -142 -154 -156 -156 -149 -114 -88 -86 -112 -122 -168 -135 -133 -83 -54 -58 -60 -78 -72 -8 0 0 0
0 0 -62 -94 0 -20 -29 0 -147 -97 -173 -266 -270 -186 -205 -294 -357 -391 -477 -338 -413 -265 -191 -159 -170 -166 -192 -237 -217 -195 -214 -176 -118 -115 -106 -131 -122 -139 -160 -172 -181 -165 -127 -89 -134 0 0 0 0
0 0 -79 -13 -27 -109 -88 -46 -128 -144 -6 -346 -350 -193 -178 -290 -377 -422 -399 -377 -365 -211 -195 -168 -224 -191 -208 -232 -247 -289 -319 -14 -16 -289 -224 -240 -159 -141 -216 -244 -252 0 0 0 0 0 0 0 0
Wind_Speed
26 25 25 16 18 20 22 22 23 23 21 19 21 17 16 16 16 15 24 26 28 27 28 27 26 25 25 25 25 25 25 24 23 21 21 21 20 18 18 18 22 23 23 23 23 25 25 25 25
24 22 18 16 21 24 21 19 19 19 20 20 17 13 14 14 14 18 23 27 27 26 27 26 26 25 25 24 24 25 25 24 24 23 23 23 21 20 19 21 22 23 24 24 24 24 25 25 24
20 17 19 19 19 20 21 19 22 22 22 19 18 16 13 13 14 22 22 28 27 25 24 26 26 26 25 24 24 24 24 24 24 24 23 23 22 21 20 21 21 23 23 23 23 22 23 23 22
13 15 18 22 21 18 18 17 17 19 19 19 19 19 17 15 23 21 26 26 25 24 25 25 25 25 25 24 24 23 23 24 24 24 24 22 21 19 18 19 21 21 22 22 21 21 20 20 20
12 14 19 19 20 18 14 16 16 14 17 17 16 16 18 21 19 24 26 24 24 24 24 24 24 24 23 23 22 22 22 22 22 22 22 22 21 21 19 19 19 19 20 20 20 19 18 18 19
20 17 19 18 19 18 13 19 16 17 19 19 20 20 19 20 23 26 25 25 23 24 24 24 23 23 22 21 22 22 20 19 20 20 20 20 19 19 18 18 18 18 17 18 18 17 17 16 16
18 19 17 16 17 18 17 19 18 17 18 18 21 20 20 23 24 25 24 24 23 22 22 20 21 21 20 20 21 20 21 19 18 17 17 16 16 16 15 16 17 16 16 16 15 16 16 15 15
15 18 20 17 16 17 17 17 18 18 15 21 22 18 22 26 24 21 20 24 24 24 23 21 21 20 19 20 20 17 17 17 17 16 14 13 13 13 13 13 15 15 14 15 14 13 14 14 14
16 22 20 20 16 14 19 18 19 17 19 18 16 17 22 26 22 20 19 14 24 25 24 22 21 20 19 18 17 16 16 16 15 13 12 10 10 9 9 10 11 14 13 14 14 12 12 13 16
14 18 20 12 8 13 17 17 17 16 18 16 15 17 22 25 27 28 29 28 26 25 23 22 21 19 18 17 17 15 14 14 13 12 11 10 10 9 8 12 15 15 12 12 13 12 11 9 13
15 13 14 16 14 15 15 18 15 18 14 18 18 21 23 24 25 26 27 27 26 24 22 22 21 20 19 17 16 14 14 14 11 10 9 9 9 9 12 10 12 15 12 11 10 11 8 7 6
18 16 11 16 21 17 16 16 14 15 13 19 20 23 25 24 25 26 25 24 24 22 22 22 21 20 20 17 15 14 15 14 13 10 8 8 10 11 9 9 12 15 13 10 11 11 11 11 11
15 13 12 12 14 15 15 15 14 14 18 20 20 22 26 26 25 25 23 21 21 21 22 21 21 21 21 20 19 20 19 17 15 13 11 10 11 10 11 14 11 15 16 8 9 10 11 12 12
13 13 15 11 13 12 4 16 15 17 19 19 21 23 26 27 25 23 21 22 21 21 21 20 21 22 21 21 20 20 19 17 16 15 15 15 14 13 13 13 13 13 14 6 7 10 10 8 6
16 17 13 12 15 13 15 15 17 20 20 20 22 25 27 27 26 26 24 21 21 21 19 19 20 19 20 20 20 20 18 17 15 14 15 15 15 15 12 12 13 14 10 6 5 5 4 7 5
17 16 12 12 15 15 17 10 16 20 20 20 22 24 27 26 26 26 25 22 22 21 20 19 19 19 20 20 20 20 18 16 14 14 14 14 15 16 14 13 13 10 6 4 2 1 1 3 2
18 17 15 13 18 18 12 17 18 18 19 19 20 21 22 23 24 24 25 23 23 23 21 20 19 19 20 20 19 19 17 16 14 14 14 13 14 14 14 14 15 12 6 5 3 1 2 3 1
19 17 15 12 16 17 8 14 14 19 19 19 18 17 17 19 23 23 22 23 22 22 22 20 19 19 19 19 18 17 17 17 15 14 13 16 15 14 13 11 14 12 10 8 4 3 1 3 8
11 15 14 18 18 16 17 17 15 18 19 20 18 18 17 16 21 22 22 21 22 21 22 22 19 19 17 17 17 18 18 17 17 13 14 16 16 13 14 10 10 9 8 8 4 4 2 5 11
11 12 12 14 15 16 18 16 16 18 17 14 19 17 19 18 17 22 20 19 23 22 22 20 20 18 19 18 17 15 14 15 15 12 13 15 15 14 12 10 11 9 11 9 5 3 7 7 12
14 13 13 17 16 17 19 20 15 18 16 10 6 6 19 19 17 18 21 20 20 22 22 20 18 18 16 16 14 13 9 12 11 11 12 15 14 13 12 10 7 6 3 5 2 4 5 3 10
15 13 16 13 15 17 18 19 21 18 14 11 3 11 18 18 11 14 19 18 23 23 21 21 17 17 15 13 15 15 15 14 14 15 12 9 9 10 10 10 7 4 2 3 4 10 10 12 5
16 22 16 15 16 18 19 20 20 21 20 22 24 5 7 3 11 12 20 18 20 20 23 22 15 17 13 11 12 13 13 13 8 4 15 20 7 5 3 7 7 4 3 11 16 19 17 14 12
14 13 14 15 17 21 22 14 23 24 22 23 12 6 5 4 6 11 10 13 16 15 16 16 14 14 12 11 10 10 12 9 4 3 4 8 16 14 4 3 4 1 7 7 11 15 21 18 15
12 11 16 16 16 18 15 15 20 25 24 14 8 8 11 6 11 11 12 13 17 19 14 13 17 15 11 11 8 9 13 20 22 18 21 20 24 25 24 21 21 6 5 6 7 7 8 11 16
6 7 14 18 14 13 17 24 25 12 8 9 10 13 16 15 11 13 24 14 4 1 10 15 12 12 11 12 9 22 29 32 36 27 16 4 13 5 3 4 9 4 6 6 5 6 6 10 14
13 12 16 14 16 18 17 20 7 7 7 11 10 12 13 11 10 9 10 15 15 23 22 2 6 4 7 13 21 27 15 4 9 11 7 8 6 7 12 12 11 8 7 8 9 6 7 11 19
11 6 9 15 13 17 20 18 8 9 7 10 12 12 10 14 12 10 8 13 15 17 21 15 2 6 13 13 17 21 21 14 10 11 11 14 17 18 18 17 15 14 13 11 9 9 9 10 11
15 12 14 11 12 12 14 14 8 8 10 13 8 10 14 15 12 17 3 11 14 16 12 12 13 14 16 16 17 20 21 19 18 18 17 18 18 18 18 18 17 17 17 14 13 12 12 12 10
20 13 9 16 14 15 14 14 8 7 6 7 7 12 18 14 11 10 8 8 9 10 11 12 13 16 17 17 18 18 18 19 19 19 18 18 19 20 20 19 20 20 20 18 16 15 17 16 17
Wind_Direction
102 107 129 159 114 100 81 72 80 86 105 120 108 121 113 71 93 91 128 117 118 118 120 116 110 106 104 101 102 101 98 91 84 76 79 80 78 73 69 67 84 97 106 105 102 117 125 125 123
105 103 126 117 104 71 90 101 75 90 89 84 90 69 68 86 40 82 108 121 119 116 118 114 113 109 107 102 101 104 102 97 92 84 87 86 81 80 76 81 83 93 107 106 104 103 116 121 121
107 109 105 102 96 79 68 91 85 71 81 78 72 44 40 109 75 108 112 120 118 116 114 114 114 115 112 106 106 107 102 100 98 91 87 88 86 83 82 83 86 95 102 105 108 105 106 114 118
139 121 102 79 77 83 80 118 117 83 56 57 66 53 67 83 110 110 115 118 116 116 117 115 115 116 117 109 111 102 105 105 104 101 92 87 84 74 73 76 91 94 102 104 102 104 105 109 111
141 127 79 71 59 85 110 124 102 76 50 50 70 77 71 132 90 108 116 117 116 116 117 117 118 117 112 110 106 107 105 101 99 95 92 91 94 90 80 85 93 92 102 112 111 109 111 109 113
45 84 62 67 56 76 132 114 76 64 62 58 57 71 86 99 107 116 117 118 117 119 119 120 119 122 117 109 115 114 106 98 98 97 94 92 93 94 85 92 101 103 103 113 118 122 115 107 111
44 49 54 61 63 63 96 117 97 81 69 57 81 72 96 112 115 117 117 118 118 120 121 118 120 123 121 117 122 119 114 103 101 94 93 88 90 91 87 96 111 113 115 124 122 127 130 125 127
47 41 32 34 51 65 101 114 99 84 119 89 93 102 122 131 116 111 112 119 124 128 129 128 130 128 126 128 128 111 111 111 109 102 94 89 87 84 88 93 117 126 127 135 135 132 144 145 140
52 32 29 22 49 80 106 101 103 70 88 131 158 101 114 118 111 111 113 109 127 136 142 138 135 134 131 129 125 120 124 120 115 108 98 85 72 69 74 90 98 139 136 143 148 145 147 157 167
54 42 33 81 166 116 108 97 99 75 98 163 33 71 105 116 123 124 133 139 143 145 148 146 142 139 138 135 139 133 131 130 122 116 109 98 89 76 28 154 171 159 145 147 153 150 150 140 161
47 43 69 82 85 354 123 93 82 105 128 162 111 112 121 122 129 135 142 146 150 147 144 148 150 148 148 148 149 143 146 143 132 126 114 108 109 123 158 145 161 174 159 153 146 152 140 118 111
56 33 128 60 47 331 114 133 101 126 188 128 119 123 129 129 136 143 141 143 145 147 148 150 152 154 158 154 154 157 161 155 153 142 129 129 141 158 144 147 160 166 157 143 152 162 169 173 159
91 84 114 68 296 327 141 79 105 144 88 110 108 124 135 138 143 147 146 140 143 147 153 156 155 159 161 161 164 167 165 163 162 154 146 147 159 161 165 177 154 171 173 137 152 162 175 184 179
95 68 68 243 218 174 142 76 117 109 89 92 113 130 140 147 148 145 145 151 154 156 158 154 160 166 165 170 172 174 170 167 167 167 171 174 172 173 171 171 167 170 171 133 141 162 177 171 158
47 64 206 168 175 195 109 5 98 106 101 90 120 135 149 156 158 160 157 156 159 162 157 160 163 163 169 173 178 177 175 170 170 175 179 181 180 179 164 163 168 177 156 138 116 128 107 161 134
354 19 95 112 151 194 154 237 82 109 110 105 111 138 159 164 165 169 168 168 167 164 164 164 166 170 175 178 181 184 181 178 177 179 182 185 183 182 181 177 177 163 102 98 81 60 156 162 55
8 7 39 36 169 197 192 121 120 124 127 120 124 125 145 163 171 170 170 167 170 172 171 171 170 173 178 181 184 185 184 181 180 182 188 187 180 180 184 186 193 180 149 142 124 84 2 171 207
348 19 13 150 209 166 22 76 92 182 147 140 136 136 134 145 163 170 166 173 171 174 175 173 172 176 176 178 181 183 187 191 186 189 189 192 185 184 182 172 188 182 174 169 113 134 78 349 343
50 7 3 105 139 181 134 84 117 133 156 160 158 155 152 153 171 176 174 168 172 173 176 178 172 175 168 172 179 186 192 191 192 183 188 192 189 180 183 172 178 173 169 169 143 65 49 351 336
62 39 359 292 55 253 260 210 173 169 170 150 175 167 173 171 167 182 176 167 175 178 178 176 178 173 176 176 178 174 178 192 194 181 183 187 187 186 170 165 181 175 184 177 153 87 15 359 329
336 0 303 283 261 284 268 248 194 202 183 147 341 151 184 178 172 176 178 175 173 181 182 178 177 175 172 174 167 165 149 173 170 178 179 193 190 182 178 179 173 164 136 172 111 35 12 9 345
305 338 304 2 6 331 292 321 283 260 182 151 74 156 184 178 169 170 179 175 183 187 185 186 179 177 176 165 174 182 185 186 186 191 179 157 154 167 176 183 174 167 26 12 12 358 1 1 19
303 255 319 320 335 337 309 306 266 300 265 281 234 142 156 138 173 175 185 181 185 190 198 193 182 185 177 180 179 182 187 188 168 54 201 229 37 76 106 175 185 182 5 353 342 337 346 360 3
318 327 341 330 327 316 296 323 295 307 316 320 336 129 148 167 166 175 179 181 187 187 188 193 199 207 201 195 195 197 193 186 178 44 77 20 342 352 84 69 178 89 27 32 2 346 336 332 333
306 328 323 323 333 324 329 332 262 292 309 348 66 122 149 155 155 163 175 182 189 194 190 197 208 216 277 206 222 229 278 299 303 319 322 329 304 291 319 335 333 17 37 47 21 20 26 6 338
299 315 320 322 329 342 313 305 306 5 69 34 165 123 130 134 136 163 180 159 229 228 189 202 212 231 250 228 296 325 339 310 278 297 235 148 207 179 69 60 22 49 38 42 41 39 41 14 352
306 293 310 320 331 321 327 333 215 90 80 19 125 117 123 130 136 130 290 316 294 269 299 319 200 244 306 317 322 339 29 81 50 177 162 48 73 40 16 14 16 32 32 31 25 45 24 358 327
324 329 314 321 324 319 319 329 26 41 114 105 85 117 124 146 143 109 311 311 299 287 300 332 55 20 359 358 353 357 7 27 56 55 44 25 14 14 13 16 19 20 17 20 19 13 4 6 359
310 311 304 318 327 331 330 339 24 148 134 140 52 76 156 138 132 157 16 322 313 320 360 5 5 4 3 11 10 6 8 17 24 23 22 18 19 22 22 23 22 19 14 15 12 11 10 2 356
298 313 297 294 303 313 324 330 358 148 17 28 50 143 185 129 80 79 43 13 11 25 36 57 35 13 9 15 21 24 27 29 26 25 24 24 19 17 19 22 18 13 13 13 13 10 359 0 1